sat.trackr.live / text

‹ back to catalog

STARLINK-1762

NORAD 46342 · 2020-062T

PAYLOAD ACTIVE UNKNOWN

§ Identity

Operator
Country
US
Launch date
2020-09-03
Launch site
AFETR
Launch vehicle
Mass (kg)
RCS (m²)

Purposes: comms

External: N2YO · Heavens-Above · Gunter

§ Orbital elements

Epoch: 2026-05-24T19:34:38.420544Z

Period
93.72 min
Inclination
53.1568°
Eccentricity
0.0004341
Mean motion
15.36431874 rev/d
Perigee alt
453.7 km
Apogee alt
459.6 km
Semi-major
6,834.8 km
B*
1.1863e-3
RAAN
15.8064°
Arg perigee
134.3186°
Mean anomaly
225.8174°
Rev number
31,607

§ Raw data

STARLINK-17621 46342U 20062T   26144.81572246  .00042639  00000+0  11863-2 0  99952 46342  53.1568  15.8064 0004341 134.3186 225.8174 15.36431874316079

JSON: /api/v1/satellites/46342 · /tle

For live sub-satellite position, see the globe view (requires WebGL).

§ Visibility from observer

Set your observer location to see the next 7 days of passes ≥ 10°. The values pass through the URL so the page stays shareable.

No JS? Fill the form by hand. The geolocation button needs JavaScript.